Location: City of Moscow
(46.7306°N, 116.9989°W)
Time: 12:21:19
(UTC+00:00)

ACS3 Solar Sail - Pass Details

Date: 23 February 2026
Orbit: 887 x 973 km, 97.2° (Epoch: 8 March)

Event Time Altitude Azimuth Distance (km) Brightness Sun altitude
Rises 09:37:46 0° 13° (NNE) 3,508 5.3 -47.7°
Reaches altitude 10° 09:40:11 10° 16° (NNE) 2,562 4.5 -47.5°
Enters shadow 09:40:15 10° 16° (NNE) 2,540 4.4 -47.5°
